Lake Allatoona Weather Center

Moon Phase Calendar



Lake Allatoona Water Level
Online Cameras

 


      

Current Conditions in Acworth
4/18/2021 12:52:50 AM

56°F
Feels Like 54
Clear
Humidity
58%
Pressure
29.91"
Wind
6.9 mph (NW)
Dew Point
41°F
UV Index
0/10 (Low)
Visibility
6 mi

Hourly Forecast

Date & Time Sun, Apr 18
12:00 AM
Sun, Apr 18
1:00 AM
Sun, Apr 18
2:00 AM
Sun, Apr 18
3:00 AM
Sun, Apr 18
4:00 AM
Sun, Apr 18
5:00 AM
Sun, Apr 18
6:00 AM
Sun, Apr 18
7:00 AM
Sun, Apr 18
8:00 AM
Sun, Apr 18
9:00 AM
Sun, Apr 18
10:00 AM
Sun, Apr 18
11:00 AM
Sun, Apr 18
12:00 PM
Sun, Apr 18
1:00 PM
Sun, Apr 18
2:00 PM
Sun, Apr 18
3:00 PM
Sun, Apr 18
4:00 PM
Sun, Apr 18
5:00 PM
Sun, Apr 18
6:00 PM
Sun, Apr 18
7:00 PM
Sun, Apr 18
8:00 PM
Sun, Apr 18
9:00 PM
Sun, Apr 18
10:00 PM
Sun, Apr 18
11:00 PM
Mon, Apr 19
12:00 AM
Mon, Apr 19
1:00 AM
Mon, Apr 19
2:00 AM
Mon, Apr 19
3:00 AM
Mon, Apr 19
4:00 AM
Mon, Apr 19
5:00 AM
Mon, Apr 19
6:00 AM
Mon, Apr 19
7:00 AM
Mon, Apr 19
8:00 AM
Mon, Apr 19
9:00 AM
Mon, Apr 19
10:00 AM
Mon, Apr 19
11:00 AM
Mon, Apr 19
12:00 PM
Mon, Apr 19
1:00 PM
Mon, Apr 19
2:00 PM
Mon, Apr 19
3:00 PM
Mon, Apr 19
4:00 PM
Mon, Apr 19
5:00 PM
Mon, Apr 19
6:00 PM
Mon, Apr 19
7:00 PM
Mon, Apr 19
8:00 PM
Mon, Apr 19
9:00 PM
Mon, Apr 19
10:00 PM
Mon, Apr 19
11:00 PM
Condition
Clouds

Clear

Clouds

Clouds

Clouds

Clouds

Clouds

Clouds

Clouds

Clear

Clouds

Clouds

Clouds

Clouds

Clouds

Clear

Clear

Clear

Clear

Clear

Clouds

Clouds

Clouds

Clouds

Clouds

Clouds

Clouds

Clear

Clear

Clear

Clear

Clear

Clear

Clear

Clear

Clear

Clear

Clear

Clear

Clear

Clear

Clear

Clear

Clear

Clouds

Clouds

Clouds

Clouds
Temperature 55°F56°F55°F53°F51°F49°F46°F45°F48°F53°F57°F60°F63°F65°F67°F68°F68°F69°F68°F65°F60°F57°F55°F54°F54°F54°F54°F50°F49°F47°F46°F46°F48°F54°F58°F61°F64°F66°F68°F69°F69°F69°F68°F66°F60°F58°F56°F55°F
Feels Like 53°F54°F53°F52°F49°F47°F45°F44°F46°F51°F55°F58°F61°F63°F65°F66°F67°F67°F66°F64°F58°F55°F53°F53°F52°F52°F52°F49°F46°F45°F44°F44°F47°F52°F56°F59°F62°F64°F66°F67°F68°F67°F67°F64°F59°F56°F54°F53°F
Cloudiness 21%1%21%41%36%39%62%54%47%8%42%43%36%30%34%5%5%6%7%9%11%100%51%67%75%79%78%5%5%4%4%4%3%0%0%0%0%0%0%2%4%4%4%6%17%93%96%98%
Visibility 6 mi6 mi6 mi6 mi6 mi6 mi6 mi6 mi6 mi6 mi6 mi6 mi6 mi6 mi6 mi6 mi6 mi6 mi6 mi6 mi6 mi6 mi6 mi6 mi6 mi6 mi6 mi6 mi6 mi6 mi6 mi6 mi6 mi6 mi6 mi6 mi6 mi6 mi6 mi6 mi6 mi6 mi6 mi6 mi6 mi6 mi6 mi6 mi
Precipitation 0%0%0%0%0%0%0%0%0%0%0%0%0%0%0%0%0%0%0%0%0%0%0%0%0%0%0%0%0%0%0%0%0%0%0%0%0%0%0%0%0%0%0%0%0%0%0%0%
Humidity 62%58%63%70%77%84%91%92%85%71%62%54%47%43%40%38%37%37%39%47%59%65%69%69%69%68%69%77%82%87%90%90%84%69%58%50%44%40%37%36%35%35%37%45%56%58%59%62%
Dew Point 42°F41°F42°F44°F44°F44°F43°F43°F43°F43°F43°F43°F42°F42°F42°F41°F41°F41°F42°F44°F45°F45°F44°F44°F44°F43°F43°F43°F43°F43°F43°F42°F43°F44°F43°F42°F41°F41°F41°F41°F40°F41°F41°F44°F44°F42°F42°F42°F
Pressure 29.91"29.91"29.91"29.91"29.91"29.91"29.94"29.94"29.97"29.97"29.97"29.97"29.94"29.94"29.91"29.88"29.85"29.85"29.85"29.85"29.88"29.91"29.94"29.94"29.94"29.94"29.94"29.94"29.94"29.94"29.97"29.97"30"30"30"30"30"29.97"29.97"29.97"29.94"29.94"29.94"29.94"29.94"29.97"30"30"
Wind Speed 4.3 mph4.3 mph5 mph4.7 mph4.3 mph4.4 mph3.9 mph3.8 mph4 mph4.9 mph5.5 mph6.4 mph6.4 mph7.9 mph8.8 mph8.2 mph7.7 mph6.9 mph7.4 mph7.4 mph6.3 mph5.8 mph7.5 mph7.4 mph7.1 mph7.2 mph6.7 mph6 mph5.2 mph4.4 mph4.6 mph4 mph4.2 mph6.8 mph8 mph8.3 mph8.2 mph8.6 mph8.8 mph8.5 mph8 mph7.7 mph7.2 mph5.4 mph4 mph3.2 mph2.7 mph2.8 mph
Wind
Direction
307°
NW
320°
NW
331°
NNW
333°
NNW
334°
NNW
320°
NW
309°
NW
313°
NW
317°
NW
321°
NW
319°
NW
310°
NW
304°
NW
298°
WNW
306°
NW
307°
NW
307°
NW
296°
WNW
287°
WNW
281°
W
274°
W
275°
W
295°
WNW
311°
NW
313°
NW
319°
NW
320°
NW
320°
NW
316°
NW
300°
WNW
303°
WNW
308°
NW
313°
NW
321°
NW
325°
NW
326°
NW
323°
NW
321°
NW
321°
NW
321°
NW
322°
NW
326°
NW
331°
NNW
349°
N

N

N
10°
N
350°
N

Daily Forecast

Date High Low Precip. Humidity
Today
Apr 18

Clouds
69 °F
45 °F
0%
43%
Monday
Apr 19

Clear
69 °F
46 °F
0%
40%
Tuesday
Apr 20

Clouds
74 °F
50 °F
0%
30%
Wednesday
Apr 21

Clouds
56 °F
41 °F
0%
41%
Thursday
Apr 22

Clouds
62 °F
36 °F
0%
33%
Friday
Apr 23

Clouds
61 °F
41 °F
1%
37%
Saturday
Apr 24

Clouds
66 °F
51 °F
0%
49%
Sunday
Apr 25

Clouds
59 °F
43 °F
0%
33%
Monday
Apr 26

Clouds
61 °F
37 °F
0%
27%
Tuesday
Apr 27

Clouds
78 °F
44 °F
0%
32%
Wednesday
Apr 28

Rain
74 °F
55 °F
69%
33%
Thursday
Apr 29

Rain
63 °F
51 °F
100%
71%
Friday
Apr 30

Rain
68 °F
54 °F
61%
78%
Saturday
May 1

Rain
82 °F
55 °F
47%
48%
Sunday
May 2

Clouds
86 °F
64 °F
45%
40%
Monday
May 3

Rain
85 °F
66 °F
55%
48%

Temperature 8-14 Day Outlook



Precipitation 8-14 Day Outlook




Quick Links
Lake Allatoona News
Lake Allatoona Photos
Lake Allatoona Videos




About Us
Contact Us
Site Map
Search Site
Advertise With Us
   
Allatoona.USLakes.info
THE LAKE ALLATOONA WEBSITE

Copyright 2021, Lakes Online
Privacy    |    Legal